DLH455 KSFO-EDDF

Flight info

Callsign DLH455
Flight time N/A
Altitude 29000
Route SNTNA2 DEDHD DCT LKV DCT MLP DCT ITREK DCT 55N098W/N0489F310 60N088W DCT BODRA DCT 65N070W/M084F330 DCT EPMAN DCT 67N050W 66N040W 65N030W 63N020W 62N010W DCT OSBON/N0482F350 DCT WAFIL DCT PELET DCT TOPPA DCT AMGOD DCT PETIK DCT SOGPO DCT DIXAT DIXAT1A
Aircraft A346/H-SDE2E3FGHIJ3J4J5M1RWXY/LB1D1

Departure

Time 2026-05-05 05:08
Airport San Francisco International Airport (KSFO)

Arrival

Time N/A
Airport Frankfurt Main Airport (EDDF)
Time Latitude Longitude Altitude Speed Heading
2026-05-05 04:35 37.61758 -122.39249 41 ft 0 kts 27°
2026-05-05 04:53 37.61745 -122.39256 40 ft 2 kts 16°
2026-05-05 04:54 37.61731 -122.39259 40 ft 2 kts
2026-05-05 04:54 37.61716 -122.39259 40 ft 2 kts 351°
2026-05-05 04:54 37.61702 -122.39255 40 ft 2 kts 340°
2026-05-05 04:54 37.61688 -122.39246 41 ft 2 kts 328°
2026-05-05 04:55 37.61676 -122.39236 40 ft 2 kts 316°
2026-05-05 04:55 37.61667 -122.39222 40 ft 2 kts 305°
2026-05-05 04:55 37.61663 -122.39214 40 ft 1 kts 299°
2026-05-05 04:55 37.61662 -122.39211 40 ft 0 kts 300°
2026-05-05 04:57 37.61663 -122.39215 40 ft 0 kts 300°
2026-05-05 04:58 37.61670 -122.39231 40 ft 3 kts 300°
2026-05-05 04:58 37.61691 -122.39278 40 ft 8 kts 300°
2026-05-05 04:58 37.61724 -122.39354 40 ft 11 kts 298°
2026-05-05 04:58 37.61765 -122.39452 38 ft 13 kts 301°
2026-05-05 04:59 37.61830 -122.39511 37 ft 10 kts 340°
2026-05-05 04:59 37.61907 -122.39524 38 ft 11 kts
2026-05-05 04:59 37.61966 -122.39471 40 ft 11 kts 60°
2026-05-05 04:59 37.62000 -122.39380 40 ft 11 kts 55°
2026-05-05 05:00 37.62067 -122.39315 40 ft 12 kts 30°
2026-05-05 05:00 37.62151 -122.39258 40 ft 14 kts 28°
2026-05-05 05:00 37.62235 -122.39203 39 ft 14 kts 28°
2026-05-05 05:00 37.62301 -122.39120 38 ft 13 kts 68°
2026-05-05 05:01 37.62328 -122.39000 37 ft 14 kts 79°
2026-05-05 05:01 37.62318 -122.38879 37 ft 14 kts 110°
2026-05-05 05:01 37.62273 -122.38766 38 ft 14 kts 118°
2026-05-05 05:01 37.62226 -122.38654 39 ft 14 kts 117°
2026-05-05 05:02 37.62180 -122.38538 40 ft 14 kts 117°
2026-05-05 05:02 37.62132 -122.38423 40 ft 15 kts 118°
2026-05-05 05:02 37.62082 -122.38304 40 ft 15 kts 118°
2026-05-05 05:02 37.62029 -122.38180 40 ft 16 kts 118°
2026-05-05 05:03 37.61979 -122.38063 40 ft 14 kts 119°
2026-05-05 05:03 37.61912 -122.37961 40 ft 16 kts 138°
2026-05-05 05:03 37.61831 -122.37854 38 ft 17 kts 123°
2026-05-05 05:03 37.61783 -122.37719 35 ft 15 kts 110°
2026-05-05 05:04 37.61740 -122.37579 30 ft 18 kts 114°
2026-05-05 05:04 37.61680 -122.37426 26 ft 20 kts 117°
2026-05-05 05:04 37.61614 -122.37264 24 ft 18 kts 118°
2026-05-05 05:04 37.61556 -122.37125 21 ft 19 kts 118°
2026-05-05 05:05 37.61490 -122.36978 21 ft 19 kts 122°
2026-05-05 05:05 37.61416 -122.36855 21 ft 16 kts 131°
2026-05-05 05:05 37.61346 -122.36734 21 ft 17 kts 120°
2026-05-05 05:05 37.61290 -122.36603 21 ft 17 kts 118°
2026-05-05 05:06 37.61231 -122.36466 19 ft 18 kts 118°
2026-05-05 05:06 37.61170 -122.36319 17 ft 19 kts 117°
2026-05-05 05:06 37.61112 -122.36178 17 ft 16 kts 117°
2026-05-05 05:06 37.61062 -122.36056 17 ft 13 kts 113°
2026-05-05 05:07 37.61067 -122.35948 17 ft 13 kts 57°
2026-05-05 05:07 37.61147 -122.35896 17 ft 13 kts 356°
2026-05-05 05:07 37.61224 -122.35964 17 ft 14 kts 304°
2026-05-05 05:07 37.61351 -122.36253 19 ft 67 kts 297°
2026-05-05 05:08 37.61665 -122.37002 21 ft 124 kts 298°
2026-05-05 05:08 37.62138 -122.38129 41 ft 168 kts 298°
2026-05-05 05:08 37.62736 -122.39547 264 ft 187 kts 299°
2026-05-05 05:08 37.63353 -122.40964 777 ft 185 kts 299°
2026-05-05 05:09 37.63978 -122.42396 1250 ft 188 kts 299°
2026-05-05 05:09 37.64612 -122.43851 1737 ft 190 kts 299°
2026-05-05 05:09 37.65262 -122.45351 2042 ft 202 kts 299°
2026-05-05 05:09 37.65958 -122.46959 2249 ft 212 kts 299°
2026-05-05 05:10 37.66687 -122.48644 2422 ft 226 kts 300°
2026-05-05 05:10 37.67461 -122.50422 2671 ft 239 kts 302°
2026-05-05 05:10 37.67948 -122.51279 2778 ft 245 kts 317°
2026-05-05 05:11 37.68500 -122.51846 2888 ft 249 kts 332°
2026-05-05 05:11 37.70156 -122.52467 3343 ft 254 kts 358°
2026-05-05 05:11 37.71973 -122.52505 3647 ft 267 kts 359°
2026-05-05 05:11 37.73862 -122.52541 4028 ft 276 kts 359°
2026-05-05 05:12 37.75785 -122.52595 4611 ft 278 kts 359°
2026-05-05 05:12 37.77745 -122.52663 5216 ft 279 kts 359°
2026-05-05 05:12 37.79662 -122.52387 5738 ft 282 kts 24°
2026-05-05 05:12 37.81184 -122.50880 6321 ft 283 kts 57°
2026-05-05 05:13 37.82019 -122.48634 6901 ft 284 kts 67°
2026-05-05 05:13 37.82764 -122.46314 7374 ft 289 kts 66°
2026-05-05 05:13 37.83688 -122.44035 7870 ft 291 kts 50°
2026-05-05 05:13 37.85190 -122.42372 8455 ft 288 kts 28°
2026-05-05 05:14 37.86952 -122.41227 9012 ft 289 kts 26°
2026-05-05 05:14 37.88759 -122.40089 9479 ft 293 kts 26°
2026-05-05 05:14 37.90603 -122.38922 9988 ft 295 kts 27°
2026-05-05 05:14 37.92430 -122.37760 10386 ft 301 kts 27°
2026-05-05 05:15 37.94335 -122.36544 10604 ft 313 kts 27°
2026-05-05 05:15 37.96321 -122.35272 10827 ft 325 kts 27°
2026-05-05 05:15 37.98358 -122.33962 11050 ft 336 kts 27°
2026-05-05 05:15 38.00479 -122.32598 11268 ft 348 kts 27°
2026-05-05 05:16 38.02692 -122.31173 11546 ft 357 kts 27°
2026-05-05 05:16 38.04890 -122.29756 12054 ft 359 kts 28°
2026-05-05 05:16 38.07133 -122.28310 12654 ft 358 kts 28°
2026-05-05 05:16 38.09327 -122.26896 13208 ft 359 kts 28°
2026-05-05 05:17 38.11552 -122.25463 13739 ft 360 kts 28°
2026-05-05 05:17 38.13797 -122.24023 14241 ft 361 kts 28°
2026-05-05 05:17 38.16026 -122.22587 14739 ft 363 kts 28°
2026-05-05 05:17 38.18285 -122.21128 15225 ft 364 kts 28°
2026-05-05 05:18 38.20548 -122.19665 15713 ft 366 kts 28°
2026-05-05 05:18 38.22828 -122.18187 16206 ft 367 kts 28°
2026-05-05 05:18 38.25104 -122.16711 16660 ft 368 kts 28°
2026-05-05 05:18 38.27388 -122.15229 17090 ft 371 kts 29°
2026-05-05 05:19 38.29686 -122.13738 17531 ft 372 kts 29°
2026-05-05 05:19 38.32030 -122.12315 17996 ft 373 kts 26°
2026-05-05 05:19 38.34441 -122.11072 18420 ft 376 kts 22°
2026-05-05 05:19 38.36930 -122.10011 18743 ft 380 kts 19°
2026-05-05 05:20 38.39478 -122.09063 19123 ft 383 kts 19°
2026-05-05 05:20 38.42021 -122.08133 19523 ft 384 kts 18°
2026-05-05 05:20 38.44622 -122.07186 19863 ft 387 kts 19°
2026-05-05 05:20 38.47210 -122.06243 20210 ft 389 kts 19°
2026-05-05 05:21 38.49830 -122.05290 20570 ft 391 kts 19°
2026-05-05 05:21 38.52452 -122.04333 20922 ft 393 kts 19°
2026-05-05 05:21 38.55062 -122.03380 21290 ft 395 kts 19°
2026-05-05 05:21 38.59477 -122.01769 21837 ft 399 kts 19°
2026-05-05 05:22 38.64801 -121.99822 22494 ft 402 kts 19°
2026-05-05 05:22 38.70074 -121.97887 23156 ft 405 kts 19°
2026-05-05 05:22 38.75403 -121.95932 23757 ft 409 kts 18°
2026-05-05 05:22 38.80779 -121.93958 24324 ft 412 kts 18°
2026-05-05 05:23 38.86219 -121.91957 24838 ft 417 kts 19°
2026-05-05 05:23 38.91790 -121.89904 25360 ft 421 kts 19°
2026-05-05 05:23 38.97259 -121.87887 25917 ft 424 kts 19°
2026-05-05 05:23 39.02610 -121.85908 26411 ft 426 kts 19°
2026-05-05 05:24 39.07927 -121.83941 26831 ft 430 kts 19°
2026-05-05 05:24 39.13237 -121.81977 27352 ft 432 kts 19°
2026-05-05 05:24 39.18462 -121.80049 27910 ft 432 kts 19°
2026-05-05 05:24 39.23638 -121.78130 28350 ft 434 kts 19°
2026-05-05 05:25 39.28499 -121.76320 28751 ft 436 kts 19°
2026-05-05 05:25 39.31436 -121.75226 28953 ft 438 kts 19°
2026-05-05 05:25 39.34367 -121.74136 28953 ft 438 kts 19°
2026-05-05 05:26 39.40216 -121.71953 28989 ft 438 kts 19°
2026-05-05 05:26 39.46075 -121.69761 28978 ft 437 kts 19°